Flag for Myanmar Weather past 2 weeks in Yangon, Myanmar

77 °F

Light rain. Mostly cloudy.

Feels Like: 78 °F
Forecast: 77 / 85 °F
Wind: 5 mph from Southwest

Location: Rangoon Airport

Current Time: Oct 9, 2015 at 7:01:34 PM

Latest Report: Oct 9, 2015 at 6:30 PM

Visibility: 4 mi

Pressure: 29.77 "Hg

Humidity: 100%

Dew point: 77 °F

Location of YangonLocation

Historic Weather in Yangon — Graph


Yangon temperature yesterday

Maximum temperature yesterday: 90 °F (at 1:00 PM)
Minimum temperature yesterday: 75 °F (at 6:00 AM)
Average temperature yesterday: 81 °F

Past Weeks' High & Low Weather Summary

High91 °F (Sep 29, 2:00 PM)100% (Sep 24, 7:00 PM)29.95 "Hg (Sep 24, 7:00 PM)
Low75 °F (Oct 6, 6:30 AM)59% (Sep 29, 2:00 PM)29.56 "Hg (Oct 4, 8:00 AM)
Average82 °F88%29.81 "Hg
* Reported Sep 24 5:30 PM — Oct 9 6:00 PM, Yangon, Weather by CustomWeather, © 2015

Note: Actual official high and low records may vary slightly from our data, if they occured in-between our weather recording intervals... More about our weather records


Yangon weather history for previous 24 hours

Time TempWeatherWind HumidityBarometerVisibility
6:00 PM
Fri, Oct 9
77 °FLight rain. Mostly cloudy.5 mph100%29.77 "Hg4 mi
5:30 PM77 °FLight rain. Mostly cloudy.5 mph100%29.77 "Hg4 mi
5:00 PM77 °FLight rain. Mostly cloudy.9 mph100%29.77 "Hg4 mi
4:30 PM77 °FRain. Mostly cloudy.9 mph100%29.77 "Hg4 mi
4:00 PM77 °FLight rain. Mostly cloudy.12 mph100%29.77 "Hg4 mi
3:30 PM77 °FHeavy rain. Mostly cloudy.12 mph100%29.77 "Hg1 mi
3:00 PM82 °FPartly sunny.10 mph84%29.77 "Hg4 mi
2:30 PM81 °FMostly cloudy.10 mph94%29.77 "Hg4 mi
2:00 PM81 °FDrizzle. Mostly cloudy.7 mph94%29.77 "Hg4 mi
1:00 PM81 °FLight rain. Mostly cloudy.9 mph94%29.77 "Hg4 mi
12:30 PM81 °FLight rain. Mostly cloudy.9 mph94%29.83 "Hg4 mi
12:00 PM81 °FLight rain. Mostly cloudy.6 mph94%29.83 "Hg4 mi
11:30 AM82 °FLight rain. Mostly cloudy.8 mph94%29.83 "Hg4 mi
10:30 AM84 °FLight rain. Mostly cloudy.12 mph74%29.83 "Hg4 mi
10:00 AM84 °FPartly sunny.9 mph74%29.86 "Hg4 mi
9:30 AM84 °FPartly sunny.10 mph74%29.86 "Hg4 mi
9:00 AM84 °FMostly cloudy.9 mph74%29.86 "Hg4 mi
8:30 AM81 °FScattered clouds.8 mph94%29.83 "Hg4 mi
8:00 AM79 °FScattered clouds.8 mph94%29.83 "Hg4 mi
7:30 AM79 °FDrizzle. Broken clouds.5 mph94%29.80 "Hg4 mi
7:00 AM79 °FBroken clouds.5 mph94%29.80 "Hg4 mi
6:00 AM77 °FPassing clouds.5 mph100%29.77 "Hg4 mi
5:00 AM77 °FPassing clouds.3 mph100%29.77 "Hg4 mi
12:30 AM77 °FPassing clouds.6 mph100%29.86 "Hg4 mi
12:00 AM77 °FPassing clouds.6 mph100%29.86 "Hg4 mi
10:30 PM
Thu, Oct 8
77 °FPassing clouds.3 mph100%29.89 "Hg4 mi
10:00 PM77 °FPartly cloudy.5 mph100%29.89 "Hg4 mi
9:30 PM77 °FPassing clouds.6 mph100%29.86 "Hg4 mi
9:00 PM77 °FPassing clouds.5 mph100%29.86 "Hg4 mi
8:00 PM77 °FPartly cloudy.6 mph100%29.86 "Hg4 mi
Weather by CustomWeather, © 2015

See weather overviewHow to use our weather pages